www.pogodaiklimat.ru

Погода и климат >> Архив погоды >> Гана >> Бол


ПОГОДА в Боле

  • Прогноз погоды в Боле
  • Монитор погоды в Боле

АРХИВ ПОГОДЫ в Боле

Время (UTC), дата Ветер
(напр.,м/с)
 
Видим.   Явления Облачность Т
(С)
Тd
(С)
f
(%)
Тe
(С)
Тes
(С)
Комфортность P
(гПа)
Po
(гПа)
Тmin
(С)
Tmax
(С)
R
(мм)
R24
(мм)
S
(см)
06 15.09 ЮЗ 2 12 км {гроза} 9/3 360 м
[Sc Ac trans]
+22.0 +20.3 90 +28 +28 душно 1013.4 978.7 +22.0
09 15.09 ЮЗ 2 15 км 9/0
[Ac trans]
+24.0 +20.8 82 +30 +35 очень
душно
1014.8 980.3
12 15.09 З 2 17 км 4/0
[Ac trans]
+30.2 +21.8 61 +39 +52 опасность
солнечного
удара
1013.0 979.2
15 15.09 СВ 2 17 км {дождь} 8/5 450 м
[Cu med, cong Ac trans]
+28.8 +23.4 73 +39 +43 очень
душно
1011.9 978.0
18 15.09 СВ 2 10 км гроза, ливневой дождь 9/9 330 м
[Cb cap]
+22.0 +21.5 97 +29 +29 очень
душно
1013.3 978.6 +30.2 7
21 15.09 штиль 0 13 км {гроза, дождь} 6/3 330 м
[Sc Ac trans]
+22.5 +21.2 92 +30 +30 очень
душно
1013.0 978.4
00 16.09 СВ 1 10 км {гроза} 6/6
[Sc Ac trans]
+22.0 +21.0 94 +28 +28 душно 1013.3 978.6 190
03 16.09 С 1 18 км 9/0
[Ac trans]
+22.0 +21.2 95 +28 +28 душно 1012.4 977.7
06 16.09 ЮЗ 1 12 км 8/0 960 м
[Ac trans]
+22.0 +21.0 94 +28 +28 душно 1014.1 979.4 +22.0 7
09 16.09 З 1 13 км 9/5 360 м
[Sc Ac trans]
+24.7 +22.7 89 +33 +36 очень
душно
1015.8 981.3
12 16.09 ЮЗ 1 14 км 8/8 360 м
[Cu Sc]
+28.5 +23.5 74 +39 +44 очень
душно
1013.4 979.4
15 16.09 З 1 17 км 5/5 450 м
[Cu med, cong]
+31.0 +23.2 63 +41 +49 опасность
перегрева
1010.7 977.1
18 16.09 ЮЗ 1 17 км 4/1 450 м
[Cu med, cong Ac trans]
+30.0 +23.3 67 +40 +40 очень
душно
1010.2 976.5 +31.5
21 16.09 штиль 0 14 км зарница {гроза} 6/4 360 м
[Cb cap Ac trans]
+26.0 +24.3 90 +36 +36 очень
душно
1012.7 978.5
00 17.09 штиль 0 14 км зарница {гроза} 5/1 900 м
[Cb cap Ac trans Ci sp]
+25.0 +23.3 90 +33 +33 очень
душно
1013.6 979.2
03 17.09 штиль 0 14 км 5/0
[Ac trans]
+24.5 +22.9 91 +32 +32 очень
душно
1012.3 977.9
06 17.09 14 км н/о +23.5 +22.5 94 +31 +31 очень
душно
1013.1 978.6 +23.5
09 17.09 ЮЗ 1 15 км 9/9 360 м
[Sc]
+24.8 +22.8 89 +33 +34 очень
душно
1015.1 980.7
12 17.09 штиль 0 15 км 8/8 360 м
[Cu Sc Ac trans]
+29.5 +23.5 70 +40 +46 очень
душно
1013.2 979.3
15 17.09 СВ 2 14 км гроза, ливневой дождь 9/9 360 м
[Cb cap]
+23.5 +22.2 92 +30 +32 очень
душно
1012.7 978.2
00 18.09 штиль 0 10 км {гроза} 9/9 330 м
[Sc]
+22.2 +21.7 97 +29 +29 очень
душно
1014.4 979.7
03 18.09 штиль 0 10 км 9/9 330 м
[Sc]
+22.4 +21.6 95 +30 +30 очень
душно
1012.8 978.2
09 18.09 ЮЗ 1 12 км в посл. час дождь 9/9 330 м
[Sc]
+23.5 +21.8 90 +30 +31 очень
душно
1015.6 981.0
12 18.09 ЮЗ 2 10 км гроза без осадков 9/9 330 м
[Cb cap]
+26.5 +23.5 84 +36 +38 очень
душно
1015.2 980.9 0.0
15 18.09 З 2 15 км {гроза, дождь} 6/5 450 м
[Cu med, cong Ac trans]
+26.5 +24.0 86 +37 +42 очень
душно
1011.2 977.1
18 18.09 ЮЗ 1 15 км гроза без осадков 6/6 360 м
[Cb cap]
+28.0 +23.4 76 +38 +38 очень
душно
1011.3 977.3 +29.4 22
21 18.09 штиль 0 12 км в посл. час гроза 5/5 330 м
[Sc]
+23.9 +22.3 91 +31 +31 очень
душно
1014.0 979.5
00 19.09 З 1 100 м {гроза} 9/4 330 м
[Sc]
+22.9 +21.5 92 +31 +31 очень
душно
1013.8 979.2 0.0
03 19.09 ЮВ 1 12 км 8/3 330 м
[Sc Ac trans]
+21.5 +19 +19 1013.6 978.8
09 19.09 СВ 3 10 км слаб. дождь 9/9 330 м
[Sc]
+22.0 +20.7 92 +28 +29 душно 1016.0 981.2
12 19.09 штиль 0 15 км {дождь} 9/3 360 м
[Sc Ac trans]
+25.0 +21.8 82 +32 +42 очень
душно
1013.2 978.8 7
15 19.09 ЮВ 1 15 км 9/1 480 м
[Cu med, cong Ac trans]
+28.5 +26.5 89 +44 +50 опасность
перегрева
1010.7 976.8
21 19.09 ЮЗ 1 12 км зарница 9/5 330 м
[Cb cap Ac trans]
+24.5 +22.8 90 +32 +32 очень
душно
1014.0 979.6
00 20.09 штиль 0 9000 м гроза, ливневой дождь 9/9 330 м
[Cb cap]
+23.5 +22.5 94 +31 +31 очень
душно
1014.7 980.1 16
03 20.09 ЮЗ 1 12 км {гроза, дождь} 9/9 330 м
[Sc]
+23.5 +22.5 94 +31 +31 очень
душно
1013.1 978.6
06 20.09 штиль 0 12 км в посл. час дождь {гроза} 9/9 330 м
[Sc]
+23.3 +22.6 96 +32 +32 очень
душно
1014.0 979.4 +23.1 24
09 20.09 ЮВ 1 15 км 9/9 360 м
[Sc]
+25.5 +23.4 88 +34 +35 очень
душно
1016.0 981.6
12 20.09 ЮВ 1 15 км {дождь} 8/8 360 м
[Cu Sc]
+28.0 +23.7 77 +38 +43 очень
душно
1013.2 979.2 3
15 20.09 ЮВ 1 15 км 8/4 360 м
[Cu Sc Ac trans]
+29.5 +23.5 70 +40 +45 очень
душно
1011.0 977.2
09 21.09 З 2 16 км 8/6 360 м
[Sc Ac trans Ci sp]
+26.5 +23.4 83 +36 +39 очень
душно
1015.8 981.5
12 21.09 З 2 18 км 6/5 450 м
[Cu med, cong Ac trans Ci sp]
+29.5 +24.8 76 +42 +52 опасность
перегрева
1014.4 980.5
15 21.09 ЮЗ 2 18 км 6/6 480 м
[Cu med, cong]
+31.5 +22.8 60 +41 +46 опасность
перегрева
1012.1 978.5

 

Местоположение метеостанции Бол (Гана): широта 9.03 долгота -2.48 высота над уровнем моря 301 м.

В архиве по умолчанию представлена погода в Боле за последнюю неделю. Архивные данные за месяц целиком и за предыдущие месяцы, начиная с января 2011 года, Вы можете получить, выбрав интересующий диапазон дат из раскрывающегося списка и нажав кнопку "Ввод!".


*Определитесь, кто Вы:
робот инопланетянин человек

Внимание! Время в таблицах - всемирное. Для получения местного времени необходимо прибавить поправку, которая равна 1 ч.

Смотрите также архив погоды в соседних городах и на ближайших метеорологических станциях:

Погода в Ва (Гана) (113 км)
Погода в Бондуку (Кот-д'Ивуар) (114 км)
Погода в Уэнчи (Гана) (148 км)
Погода в Гауа (Буркина-Фасо) (164 км)
Погода в Тамале (Гана) (186 км)
Погода в Суняни (Гана) (190 км)
Погода в Навронго (Гана) (257 км)
Погода в Йенди (Гана) (274 км)
Погода в Кумаси (Гана) (275 км)
Погода в По (Буркина-Фасо) (277 км)

Пояснения к столбцам:

Ветер - указаны скорость ветра в м/с - средняя за 10 мин, порывы в срок и между сроками (в фигурных скобках) и направление, откуда дует ветер: С - северный, СВ - северо-восточный, В - восточный, ЮВ - юго-восточный, Ю - южный, ЮЗ - юго-западный, З - западный, СЗ - северо-западный.
Видимость - горизонтальная дальность видимости в метрах или километрах. При видимости от 1 до 10 км при отсутствии осадков обычно наблюдается дымка, при ухудшении видимости до 1 км и менее - туман. В сухую погоду видимость может ухудшаться дымом, пылью или мглою.
Явления - указаны атмосферные явления, наблюдавшиеся в срок или в последний час перед сроком; фигурными скобками обозначены явления, наблюдавшиеся между сроками (за 1-3 часа до срока); квадратными скобками обозначены град или гололедные отложения с указанием их диаметра в мм.
Облачность - указаны через наклонную черту общая и нижняя облачность в баллах и высота нижней границы облаков в метрах; квадратными скобками обозначены формы облаков: Ci - перистые, Cs - перисто-слоистые, Cc - перисто-кучевые, Ac - высококучевые, As - высокослоистые, Sc - слоисто-кучевые, Ns - слоисто-дождевые, Cu - кучевые, Cb - кучево-дождевые. Подробнее классификацию облаков см. в Атласе облаков (PDF).
T - Температура воздуха - температура, измеренная на высоте 2 м над землей.
Td - Температура точки росы - температура, при понижении до которой содержащийся в воздухе водяной пар достигнет насыщения.
f - Относительная влажность воздуха - влажноcть воздуха, измеренная на высоте 2 м над землей.
Te - Эффективная температура - температура, которую ощущает одетый по сезону человек в тени. Характеристика душности погоды. При расчете учитывается влияние влажности воздуха и скорости ветра на теплоощущения человека.
Tes - Эффективная температура на солнце - температура, которую ощущает человек, с поправкой на солнечный нагрев. Характеристика знойности погоды. Зависит от высоты солнца над горизонтом, облачности и скорости ветра. Ночью, в пасмурную погоду, а также при ветре 12 м/с и более поправка равна нулю.
P - Атмосферное давление - приведенное к уровню моря атмосферное давление.
Po - Атмосферное давление - измеренное на уровне метеостанции атмосферное давление.
Tmin - Минимальная температура - минимум температуры воздуха на высоте 2 м над землей.
Tmax - Максимальная температура - максимум температуры воздуха на высоте 2 м над землей.
R - Количество осадков - Количество выпавших осадков за период времени, мм. При наведении курсора мыши на число - период времени, за который выпало указанное количество осадков.
R24 - Количество осадков - Количество выпавших осадков за 24 часа, мм.
S - Снежный покров - Высота снежного покрова, см. При наведении курсора мыши на число - состояние снежного покрова и степень покрытия местности в баллах.